Regional Weather Roundup
Issued by NWS State College, PA

Home | Current Version | Previous Version | Text Only | Print | Product List | Glossary On
Versions: 1 2 3 4 5 6 7 8 9 10 11 12 13 14 15 16 17 18 19 20 21 22 23 24 25 26 27 28 29 30 31 32 33 34 35 36 37 38 39 40 41 42 43 44 45 46 47 48 49 50
000
ASUS41 KCTP 290110
RWRCTP

REGIONAL WEATHER ROUNDUP
NATIONAL WEATHER SERVICE STATE COLLEGE PA
900 PM EDT SAT MAR 28 2015

Note: "fair" indicates few or no clouds below 12,000 feet with no
significant weather and/or obstructions to visibility.

* = STATION THAT DOES NOT REPORT PRECIPITATION /E.G. RAIN...SNOW...ETC/
    THUNDER OR FOG.

PAZ002>004-007>009-013>016-020>023-029>032-290200-
WESTERN PENNSYLVANIA

CITY           SKY/WX    TMP DP  RH WIND       PRES   REMARKS
ERIE           CLEAR     24  11  57 W8        30.27R
MEADVILLE      CLEAR     20   7  57 W7        30.22R WCI  11
FRANKLIN*      CLEAR     18   3  53 W6        30.22R WCI   9
NEW CASTLE     FAIR      21   6  52 CALM      30.28R
BEAVER COUNTY  CLEAR     23   5  46 NW6       30.24R
BUTLER*        CLEAR     21   5  49 N7        30.25R WCI  13
PITTSBURGH INT CLEAR     24   5  44 NW10      30.24R WCI  14
PITTSBURGH     CLEAR     23   1  38 NW8       30.22R WCI  14
INDIANA*       CLEAR     21   3  45 N7        30.23R WCI  13
LATROBE        CLEAR     23   5  46 NW9       30.24R WCI  13
WASHINGTON CO* CLEAR     25   5  42 NW9       30.26R
$$

PAZ004>006-010>012-017>019-024>028-033>037-041-042-045-046-049>053-290200-
CENTRAL PENNSYLVANIA

CITY           SKY/WX    TMP DP  RH WIND       PRES   REMARKS
BRADFORD       CLEAR     17   4  56 NW8       30.11R WCI   7
DUBOIS         CLEAR     21   3  45 NW15      30.14R WCI   8
CLEARFIELD     CLEAR     21   1  41 NW10      30.15R WCI  10
JOHNSTOWN      CLEAR     19   2  47 NW17      30.10R WCI   4
ALTOONA        CLEAR     23   0  36 NW14G23   30.14R WCI  11
STATE COLLEGE  CLEAR     23   0  36 NW17      30.16R WCI   9
WILLIAMSPORT   MOCLDY    25   1  35 NW12      30.17R WCI  14
SELINSGROVE    CLOUDY    27   5  39 N15       30.16R
FT INDIANTOWN  PTCLDY    28   3  34 NE8       30.12R
CAPITAL CITY   MOCLDY    31   3  30 NW12G20   30.13R
HARRISBURG     MOCLDY    31   4  31 NW13G23   30.13R
YORK           CLOUDY    28  12  51 W7        30.13R
$$

PAZ038>040-043-044-047-048-054-055-060>062-067>071-290200-
EASTERN PENNSYLVANIA

CITY           SKY/WX    TMP DP  RH WIND       PRES   REMARKS
SCRANTON       CLOUDY    23   4  44 N17       30.11R WCI   9
MOUNT POCONO   CLOUDY    18   4  54 NW18G29   29.99R WCI   2
ALLENTOWN      CLOUDY    27   6  41 NW17G28   30.11R WCI  14
QUAKERTOWN*    CLOUDY    27   9  46 N12G20    30.10R
READING        CLOUDY    29   9  43 N9        30.12R
LANCASTER      CLOUDY    27  16  63 NW6       30.12R
COATESVILLE    MOCLDY    28  12  50 N16G23    30.10R
POTTSTOWN      CLOUDY    28  11  48 NW9G21    30.12R
BLUE BELL      MOCLDY    32  14  47 NW7       30.09R
DOYLESTOWN     CLOUDY    26  10  50 N10G20    30.08R
WILLOW GROVE   NOT AVBL
NORTH PHILA    CLEAR     31   9  39 N12G21    30.11R
PHILADELPHIA   PTCLDY    32  13  45 NW12G18   30.12R
$$



USA.gov is the U.S. government's official web portal to all federal, state and local government web resources and services.